COSMOS 1275 DEB, 42197

Orbit data source: Space-Track

COSMOS 1275 DEB, 42197 is space debris in LEO originally from a launch on Thu, 04 Jun 1981 UTC launched from the Plesetsk Missile And Space Complex (PKMTR). Debris objects in space refer to the collection of defunct objects orbiting the Earth. Examples of debris include non-operational satellites, rocket bodies, and fragments generated from explosions, collisions, or faulty payload assembly.

Loading next visibility...
Identifier
42197, 1981-053TM
Orbit
LEO
Country
Flag of CISCIS
Related business
Manufacturer
Unknown
Mission
Spacecraft
Bus & Motor
Unknown
Mass
Unknown
Launch date (UTC)
1981-06-04 (44 years ago)
Launch vehicle
Unknown
Launch site
Plesetsk Missile And Space Complex (PKMTR)
Object type
Payload
Rocket body
Debris
Shape & HBR
Unknown shape, 0.1 m
Radar Cross Section
Small (<0.1 m²)

Expand to show TLE details & history
Last TLE update: 3 days ago

TLE from 3 days ago
0 COSMOS 1275 DEB
1 42197U 81053TM  25289.48643303  .00001023  00000-0  10844-2 0  9992
2 42197  82.8498 200.4107 0112034 204.5785 155.0006 13.70831668593872
Epoch: 2025-10-16T11:40Z
TLE epoch observation values (Epoch: 2025-10-16T11:40:27.813Z)
Latitude
-0.00004°
Longitude
0.04934°
Altitude
1,074.537 km
Speed
7.277 km/s
True Right ascension
13h 21m 38s
True Declination
0° 00' 00"
Sunlit
Object was in daylight at epoch
Visualization orbit readout
Latitude
Unknown
Longitude
Unknown
Altitude
Unknown
Speed
Unknown
Apparent Right ascension
Unknown
Apparent Declination
Unknown
Sunlit
N/A
Visualization observer readout
Local Sidereal Time
18:34:07
Azimuth
Unknown
Elevation
Unknown
Doppler factor
Unknown
Orbital elements
Apogee altitude
1,076.334 km
Perigee altitude
911.154 km
Semi-major axis
7,371.881 km
Eccentricity
0.0112
Inclination
82.8498°
RAAN
200.4107°
Arg. of periapsis
204.5785°
True anomaly
155.53634°
Mean anomaly
155.0006°
Eccentric anomaly
155.26915°
Mean motion
3.42906 °/min
Orbital period
104.98 mins
BSTAR
0.0010844
Loading maneuver chart data...
Computing Atmospheric mass density...

Documentation

Showing up to 5 results
|